Voltar ao catálogo

OPS 7613

P/L 5

AtivoMilitarLEO
NORAD 4247·PAYLOAD·🇺🇸 United States

Lançado Sep 30, 1969 de Vandenberg Space Force Base

Loading…

Próximas Passagens (próximas 24 horas)

TLE

AtualizadoSource: Space-Track

Época: Sep 14, 2026, 11:48 UTC

1 04247U 69082F   26257.49172182  .00000008  00000-0  44023-4 0  9993
2 04247  70.0124 271.6908 0020160   4.4997 355.6286 13.96004268898872

Acompanhe OPS 7613 em tempo real com AllMySat

Download on the App Store